Regional Weather Roundup
Issued by NWS Northern Indiana

Home | Current Version | Previous Version | Graphics & Text | Print | Product List | Glossary On
Versions: 1 2 3 4 5 6 7 8 9 10 11 12 13 14 15 16 17 18 19 20 21 22 23 24 25 26 27 28 29 30 31 32 33 34 35 36 37 38 39 40 41 42 43 44 45 46 47 48 49 50
000
ASUS43 KIWX 160701
RWRIWX

KIWX WEATHER ROUNDUP
NATIONAL WEATHER SERVICE NORTHERN INDIANA
300 AM EDT WED AUG 16 2017

NOTE: "FAIR" INDICATES FEW OR NO CLOUDS BELOW 12,000 FEET WITH NO
SIGNIFICANT WEATHER AND/OR OBSTRUCTIONS TO VISIBILITY.

* THESE STATIONS ARE NOT UNDER NWS QUALITY CONTROL. THEY ALSO MAY NOT
  REPORT WEATHER SUCH AS PRECIPITATION OR FOG.

INZ001>027-160800-
NORTHERN INDIANA

CITY           SKY/WX    TMP DP  RH WIND       PRES   REMARKS
MICHIGAN CITY* FOG       61  61 100 CALM      30.00F VSB 3/4
SOUTH BEND     CLEAR     64  64 100 CALM      30.00F
GOSHEN         CLEAR     61  59  93 NE3       30.00S FOG
MONTICELLO*    PTCLDY    67  65  96 NE3       29.98S
WARSAW*        CLEAR     63  63 100 CALM      30.01S FOG
FORT WAYNE     PTCLDY    64  61  90 N3        30.00R
PERU/GRISSOM   CLOUDY    69  68  96 CALM      29.98S

$$
INZ028>050-160800-
CENTRAL INDIANA

CITY           SKY/WX    TMP DP  RH WIND       PRES   REMARKS
LAFAYETTE      PTCLDY    69  68  96 CALM      29.97F
KOKOMO*        PTCLDY    66  65  96 CALM      30.00S
MUNCIE*        CLEAR     68  64  87 CALM      29.99F
INDIANAPOLIS   PTCLDY    73  67  81 NW3       29.97F

$$
MIZ043>046-050>051-056>058-064>065-071>073-077>080-160800-
SOUTHWEST LOWER MICHIGAN

CITY           SKY/WX    TMP DP  RH WIND       PRES   REMARKS
BATTLE CREEK   CLEAR     65  62  90 CALM      30.02R
BENTON HARBOR  PTCLDY    60  58  92 CALM      29.99F
COLDWATER*     MOCLDY    63  63 100 CALM      30.01S FOG
HILLSDALE*     CLOUDY    64  63  94 E6        30.03R
HOLLAND        CLEAR     63  59  87 VRB3      30.01S
GRAND RAPIDS   CLEAR     63  61  93 NE3       30.01S
KALAMAZOO      PTCLDY    65  61  87 CALM      30.01S
STURGIS*       CLEAR     62  62  99 E3        30.00F
THREE RIVERS*  FAIR      65  64  96 CALM      30.01F

$$
OHZ001>008-015>018-024>025-160800-
NORTHWEST OHIO

CITY           SKY/WX    TMP DP  RH WIND       PRES   REMARKS
DEFIANCE       CLEAR     65  62  90 CALM      30.01R
FINDLAY        CLEAR     69  62  78 SE5       30.00R
TOLEDO EXPRESS CLOUDY    67  66  97 NE3       30.00S
TOLEDO METCALF CLEAR     68  67  96 E3        30.01S FOG
LIMA           CLEAR     68  66  93 SE3       30.00S

$$
AND FOR LAKE MICHIGAN COASTAL AND OPEN LAKE BUOY OBSERVATIONS

STATION/POSITION TEMP    WIND        PRES    VSBY  WAVE
                 AIR SEA DIR/SP/G                  HT/PER
                 (F)     (DEG/KT/KT) (MB)    (MI)  (FT/S)
CALUMET HARBOR    71      30/  5/  7 1015.2F
MICHIGAN CITY     68      70/  4/  4   N/A
BURNS HARBOR      70      80/  5/  6 1015.9F
SAINT JOSEPH      67      CALM  /  1 1015.9
SOUTH LAKE BUOY   70 71   50/  8/ 10 1015.9          2/ 5
4 MI NW BRIDGMAN  71 74   90/  6/  6 1015.5F         2/ 5
MICHIGAN CITY     71 74  100/  4/  6   N/A           3/ 5

$$
&&




USA.gov is the U.S. government's official web portal to all federal, state and local government web resources and services.